User: anonymous
Location: Saddleback Butte
(34.6776°N, 117.8050°W)
Time: 08:57:24
(UTC-07:00)
Language:

Cosmos 1862 Rocket - Orbit

View from above orbital plane
View from above orbital plane
View from above satellite
View from above satellite

Ground track
Ground track

The orbit data is extracted from the following two-line orbital elements,

1 18153U 87055B   14205.44722310  .00000131  00000-0  13338-4 0  3944
2 18153 082.5004 018.1870 0020743 333.3808 085.7163 14.82635530461455
Epoch (UTC): 24 July 2014 10:44:00
Eccentricity: 0.0020743
inclination: 82.5004°
perigee height: 606 km
apogee height: 635 km
right ascension of ascending node: 18.1870°
argument of perigee: 333.3808°
revolutions per day: 14.82635530
mean anomaly at epoch: 85.7163°
orbit number at epoch: 46145

The dashed part of the orbit path shows where the satellite is in the earth's shadow,  

DLR